National Weather Service Raw Text Product

Displaying AFOS PIL: RWRIA Received: 2018-01-12 15:00 UTC


257 
ASUS43 KDMX 121506
RWRIA 

WEATHER ROUNDUP FOR IOWA
NATIONAL WEATHER SERVICE DES MOINES IA
900 AM CST FRI JAN 12 2018

NOTE: "FAIR" INDICATES FEW OR NO CLOUDS BELOW 12,000 FEET WITH NO
SIGNIFICANT WEATHER AND/OR OBSTRUCTIONS TO VISIBILITY.

* - THESE STATIONS ARE NOT NWS STATIONS...THUS NOT UNDER NWS
QUALITY CONTROL.  THEY ALSO DO NOT REPORT WEATHER SUCH 
AS PRECIPITATION OR FOG.  

IAZ001>003-012>014-020>022-031>034-043>046-121600-
   NORTHWEST IOWA
  
CITY           SKY/WX    TMP DP  RH WIND       PRES   REMARKS
CARROLL *      CLOUDY    -6 -11  77 N17       30.39R WCI -28          
CHEROKEE *     CLOUDY    -4 -12  70 N9        30.43R WCI -21          
DENISON *      CLOUDY    -2  -9  71 N15       30.42R WCI -22          
LE MARS *      CLOUDY    -4 -11  71 N13       30.44R WCI -23          
ORANGE CITY *  CLOUDY    -6 -11  77 N9        30.40R WCI -22          
SHELDON *      CLOUDY    -6 -15  65 N13       30.40R WCI -25          
SIOUX CITY     CLOUDY    -2 -11  65 N12       30.45R WCI -20          
SPENCER        CLOUDY    -6 -14  68 N10       30.41R WCI -24          
STORM LAKE *   CLOUDY    -6 -13  71 N13       30.37R WCI -25          
$$
 
IAZ055>058-069>071-079>083-090>094-121600-
   SOUTHWEST IOWA
  
CITY           SKY/WX    TMP DP  RH WIND       PRES   REMARKS
ATLANTIC *     CLOUDY    -2  -9  71 N15       30.38R WCI -22          
AUDUBON *      CLOUDY    -2 -11  65 N9        30.38R WCI -18          
CLARINDA *     CLOUDY     1  -8  66 N16       30.40R WCI -18          
COUNCIL BLFS * CLOUDY     0  -6  78 NW14      30.39R WCI -19          
CRESTON *      CLOUDY    -2  -9  71 N16G23    30.33R WCI -23          
HARLAN  *      CLOUDY    -2  -9  71 N14       30.43R WCI -21          
LAMONI         CLOUDY     0  -8  69 N16       30.30R WCI -20          
RED OAK *      CLOUDY     0  -8  71 N15       30.39R WCI -20          
SHENANDOAH *   CLOUDY     1  -8  66 N13       30.42R WCI -16          
$$
 
IAZ047>049-059>061-072>074-084-121600-
   CENTRAL IOWA
  
CITY           SKY/WX    TMP DP  RH WIND       PRES   REMARKS
AMES           CLOUDY    -5 -11  75 N20       30.36R WCI -28          
ANKENY *       CLOUDY    -2 -11  65 N15G21    30.37R WCI -22          
BOONE *        CLOUDY    -6 -13  71 N20G26    30.33R WCI -29          
CHARITON *     CLOUDY     0  -8  71 N14G21    30.31R WCI -19          
DES MOINES     CLOUDY    -2 -10  69 N13       30.35R WCI -20          
GRINNELL*      CLOUDY    -2  -8  75 N18       30.31R WCI -24          
KNOXVILLE *    CLOUDY     0 -11  60 N16       30.31R WCI -21          
MARSHALLTOWN   CLOUDY    -3 -10  72 N22G31    30.34R WCI -27          
NEWTON *       CLOUDY    -2  -9  71 N17       30.33R WCI -24          
PELLA *        CLOUDY    -1  -8  69 N17       30.34R WCI -21          
PERRY *          N/A     -4 -12  68 NW16      30.38R WCI -25          
$$
 
IAZ004>006-015-016-023>025-035-036-121600-
   NORTH CENTRAL IOWA
  
CITY           SKY/WX    TMP DP  RH WIND       PRES   REMARKS
ALGONA *       CLOUDY    -8 N/A N/A N15G21    30.37R WCI -29          
CLARION *      CLOUDY    -8 -15  71 N13       30.37R WCI -28          
ESTHERVILLE    CLOUDY    -9 -15  75 N17       30.40R WCI -32          
FORT DODGE *   CLOUDY    -7 -14  71 N9        30.39R WCI -24          
MASON CITY     CLOUDY    -9 -16  71 N15       30.37R WCI -31          
FOREST CITY *    N/A     -8 -15  71 N15G21    30.36R WCI -29          
WEBSTER CITY * CLOUDY    -6 -17  59 N18       30.35R WCI -29          
IOWA FALLS *     N/A     -4 -11  71 N16       30.35R WCI -25          
$$

IAZ007>011-017>019-026>030-037>042-050>054-066-121600-
   NORTHEAST IOWA
  
CITY           SKY/WX    TMP DP  RH WIND       PRES   REMARKS
CEDAR RAPIDS     N/A      6  -3  66 N20G26    30.26R WCI -14          
CHARLES CITY *   N/A     -4 -11  71 N16G23    30.34R WCI -25          
CLINTON *        N/A     13   8  81 N17       30.21R WCI  -4          
DECORAH *        N/A     -2  -8  78 N13G21    30.30R WCI -21          
DUBUQUE        PTSUNNY    7   1  76 N17       30.21R WCI -12          
MONTICELLO *     N/A      9   1  72 N17G23    30.26R WCI -10          
OELWEIN *        N/A      0  -6  78 N21       30.30R WCI -23          
WATERLOO         N/A     -2  -9  72 N15G23    30.33R WCI -22          
$$
 
IAZ064-065-067-068-078-121600-
   EAST CENTRAL IOWA
  
CITY           SKY/WX    TMP DP  RH WIND       PRES   REMARKS
DAVENPORT        N/A     12   6  77 N18       30.22R WCI  -6          
IOWA CITY        N/A      7  -2  66 N18G25    30.29R WCI -12          
MT. PLEASANT * CLOUDY     5   0  78 N16       30.24F WCI -14          
MUSCATINE *      N/A     10   3  72 N17       30.26S WCI  -7          
QUAD CITIES    PTSUNNY   13   7  77 N10       30.21R WCI   0          
$$
 
IAZ062-063-075>077-085>089-095>099-121600-
   SOUTHEAST IOWA
  
CITY           SKY/WX    TMP DP  RH WIND       PRES   REMARKS
BURLINGTON     CLOUDY     8   2  76 N16       30.21R WCI -10          
FAIRFIELD *    CLOUDY     3  -4  72 N22       30.26S WCI -19          
FORT MADISON * CLOUDY     7   3  85 NW18      30.22R WCI -12          
KEOKUK *       CLOUDY     7   1  78 N16G23    30.22S WCI -11          
OSKALOOSA *      N/A      1  -5  75 N21       30.30R WCI -21          
OTTUMWA        CLOUDY     2  -6  69 N20       30.29R WCI -19          
WASHINGTON *   CLOUDY     5   0  78 N21       30.28R WCI -16          
$$

ABBREVIATIONS USED IN REMARKS
   TC - TEMPERATURES IN CELSIUS
  WCI - WIND CHILL INDEX
   HX - HEAT INDEX
  VSB - VISIBILITY  
$$

  

666 
ASUS43 KDMX 121501
RWRIA 

WEATHER ROUNDUP FOR IOWA
NATIONAL WEATHER SERVICE DES MOINES IA
900 AM CST FRI JAN 12 2018

NOTE: "FAIR" INDICATES FEW OR NO CLOUDS BELOW 12,000 FEET WITH NO
SIGNIFICANT WEATHER AND/OR OBSTRUCTIONS TO VISIBILITY.

* - THESE STATIONS ARE NOT NWS STATIONS...THUS NOT UNDER NWS
QUALITY CONTROL.  THEY ALSO DO NOT REPORT WEATHER SUCH 
AS PRECIPITATION OR FOG.  

IAZ001>003-012>014-020>022-031>034-043>046-121600-
   NORTHWEST IOWA
  
CITY           SKY/WX    TMP DP  RH WIND       PRES   REMARKS
CARROLL *      CLOUDY    -6 -11  77 N17       30.39R WCI -28          
CHEROKEE *     CLOUDY    -4 -12  70 N9        30.43R WCI -21          
DENISON *      CLOUDY    -2  -9  71 N15       30.42R WCI -22          
LE MARS *      CLOUDY    -4 -11  71 N13       30.44R WCI -23          
ORANGE CITY *  CLOUDY    -6 -11  77 N9        30.40R WCI -22          
SHELDON *      CLOUDY    -6 -15  65 N13       30.40R WCI -25          
SIOUX CITY     CLOUDY    -2 -11  65 N12       30.45R WCI -20          
SPENCER        CLOUDY    -6 -14  68 N10       30.41R WCI -24          
STORM LAKE *   CLOUDY    -6 -13  71 N13       30.37R WCI -25          
$$
 
IAZ055>058-069>071-079>083-090>094-121600-
   SOUTHWEST IOWA
  
CITY           SKY/WX    TMP DP  RH WIND       PRES   REMARKS
ATLANTIC *     CLOUDY    -2  -9  71 N15       30.38R WCI -22          
AUDUBON *      CLOUDY    -2 -11  65 N9        30.38R WCI -18          
CLARINDA *     CLOUDY     1  -8  66 N16       30.40R WCI -18          
COUNCIL BLFS * CLOUDY     0  -6  78 NW14      30.39R WCI -19          
CRESTON *      CLOUDY    -2  -9  71 N16G23    30.33R WCI -23          
HARLAN  *      CLOUDY    -2  -9  71 N14       30.43R WCI -21          
LAMONI         CLOUDY     0  -8  69 N16       30.30R WCI -20          
RED OAK *      CLOUDY     0  -8  71 N15       30.39R WCI -20          
SHENANDOAH *   CLOUDY     1  -8  66 N13       30.42R WCI -16          
$$
 
IAZ047>049-059>061-072>074-084-121600-
   CENTRAL IOWA
  
CITY           SKY/WX    TMP DP  RH WIND       PRES   REMARKS
AMES           CLOUDY    -5 -11  75 N20       30.36R WCI -28          
ANKENY *       CLOUDY    -2 -11  65 N15G21    30.37R WCI -22          
BOONE *        CLOUDY    -6 -13  71 N20G26    30.33R WCI -29          
CHARITON *     CLOUDY     0  -8  71 N14G21    30.31R WCI -19          
DES MOINES     CLOUDY    -2 -10  69 N13       30.35R WCI -20          
GRINNELL*      CLOUDY    -2  -8  75 N18       30.31R WCI -24          
KNOXVILLE *    CLOUDY     0 -11  60 N16       30.31R WCI -21          
MARSHALLTOWN   CLOUDY    -3 -10  72 N22G31    30.34R WCI -27          
NEWTON *       CLOUDY    -2  -9  71 N17       30.33R WCI -24          
PELLA *        CLOUDY    -1  -8  69 N17       30.34R WCI -21          
$$
 
IAZ004>006-015-016-023>025-035-036-121600-
   NORTH CENTRAL IOWA
  
CITY           SKY/WX    TMP DP  RH WIND       PRES   REMARKS
ALGONA *       CLOUDY    -8 N/A N/A N15G21    30.37R WCI -29          
CLARION *      CLOUDY    -8 -15  71 N13       30.37R WCI -28          
ESTHERVILLE    CLOUDY    -9 -15  75 N17       30.40R WCI -32          
FORT DODGE *   CLOUDY    -7 -14  71 N9        30.39R WCI -24          
MASON CITY     CLOUDY    -9 -16  71 N15       30.37R WCI -31          
FOREST CITY *    N/A     -8 -15  71 N15G21    30.36R WCI -29          
WEBSTER CITY * CLOUDY    -6 -17  59 N18       30.35R WCI -29          
IOWA FALLS *     N/A     -5 -12  71 N17       30.34R WCI -27          
$$

IAZ007>011-017>019-026>030-037>042-050>054-066-121600-
   NORTHEAST IOWA
  
CITY           SKY/WX    TMP DP  RH WIND       PRES   REMARKS
CEDAR RAPIDS     N/A      6  -3  66 N20G26    30.26R WCI -14          
CHARLES CITY *   N/A     -4 -11  71 N16G23    30.34R WCI -25          
CLINTON *        N/A     13   8  81 N17       30.21R WCI  -4          
DECORAH *        N/A     -2  -8  78 N13G21    30.30R WCI -21          
DUBUQUE        PTSUNNY    7   1  76 N17       30.21R WCI -12          
MONTICELLO *     N/A      9   1  72 N17G23    30.26R WCI -10          
OELWEIN *        N/A      0  -6  78 N21       30.30R WCI -23          
WATERLOO         N/A     -2  -9  72 N15G23    30.33R WCI -22          
$$
 
IAZ064-065-067-068-078-121600-
   EAST CENTRAL IOWA
  
CITY           SKY/WX    TMP DP  RH WIND       PRES   REMARKS
DAVENPORT        N/A     12   6  77 N18       30.22R WCI  -6          
IOWA CITY        N/A      7  -2  66 N18G25    30.29R WCI -12          
MT. PLEASANT * CLOUDY     5   0  78 N16       30.24F WCI -14          
MUSCATINE *      N/A     10   3  72 N17       30.26S WCI  -7          
QUAD CITIES    PTSUNNY   13   7  77 N10       30.21R WCI   0          
$$
 
IAZ062-063-075>077-085>089-095>099-121600-
   SOUTHEAST IOWA
  
CITY           SKY/WX    TMP DP  RH WIND       PRES   REMARKS
BURLINGTON     CLOUDY     8   2  76 N16       30.21R WCI -10          
FAIRFIELD *    CLOUDY     3  -4  72 N22       30.26S WCI -19          
FORT MADISON * CLOUDY     7   3  85 NW18      30.22R WCI -12          
KEOKUK *       CLOUDY     7   1  78 N16G23    30.22S WCI -11          
OSKALOOSA *      N/A      1  -5  75 N21       30.30R WCI -21          
OTTUMWA        CLOUDY     2  -6  69 N20       30.29R WCI -19          
WASHINGTON *   CLOUDY     5   0  78 N21       30.28R WCI -16          
$$

ABBREVIATIONS USED IN REMARKS
   TC - TEMPERATURES IN CELSIUS
  WCI - WIND CHILL INDEX
   HX - HEAT INDEX
  VSB - VISIBILITY  
$$